[[{"header":{"parameterUnit":"m.s-1","parameterCategory":1,"la1":30.2991,"la2":30.254,"lo1":-89.0895,"lo2":-89.0444,"dy":0.0017,"dx":0.0017,"nx":28,"ny":28,"refTime":"2026-01-29T03:00:00:Z","depth":0,"parameterNumber":2,"parameterNumberName":"U-component_of_WINDS"},"data":[0,0,0,0,0,0,0,0,0,0,0,0,0,0,0,0,0,0,0,0,0,0,0,0,0,0,0,0,0,0,0,0,0,0,0,0,0,0,0,0,0,0,0,0,0,0,0,0,0,0,0,0,0,0,0,0,0,0,3.4028,3.403,0,3.4158,3.4159,3.4161,3.4113,3.411,3.4107,3.4104,3.4237,3.4243,3.4249,0,0,0,0,0,0,0,0,0,0,0,0,0,3.3739,3.3744,3.4028,3.403,3.4032,3.4157,3.4159,3.4161,3.4113,3.411,3.4106,3.4103,3.4235,3.4242,3.425,0,0,0,0,0,0,0,0,0,0,0,0,0,3.3866,3.3746,3.4028,3.4023,3.4024,3.4157,3.4159,3.4161,3.4114,3.411,3.4105,3.4101,3.4232,3.4241,3.4251,3.4397,0,0,3.4279,3.4283,0,0,0,0,0,0,0,0,3.3859,3.3877,3.4022,3.4024,3.4025,3.4115,3.4106,3.424,3.4115,3.408,3.4104,3.4099,3.42,3.4211,3.4245,3.4403,3.4409,3.428,3.4286,3.429,3.4293,0,0,0,0,0,0,0,3.385,3.3871,3.4079,3.4024,3.4026,3.4014,3.4027,3.4131,3.4163,3.4082,3.4079,3.4095,3.42,3.4236,3.4248,3.4411,3.428,3.4288,3.4294,3.4298,3.4692,3.4696,0,0,0,0,0,0,3.3841,3.3864,3.4075,3.4083,3.3929,3.4023,3.4037,3.409,3.4162,3.4168,3.4099,3.4093,3.4223,3.4237,3.4253,3.4426,3.429,3.4299,3.4304,3.4687,3.4693,3.4698,0,0,0,0,0,0,3.3835,3.386,3.407,3.3973,3.3999,3.4032,3.4092,3.4095,3.4132,3.4174,3.4179,3.4131,3.422,3.4239,3.4361,3.443,3.4303,3.4311,3.4681,3.4689,3.4695,3.4775,0,0,0,0,0,0,3.3827,3.3858,3.3915,3.3974,3.4004,3.4177,3.4096,3.4101,3.4148,3.4141,3.4205,3.4212,3.4218,3.4347,3.437,3.444,3.4319,3.4675,3.4685,3.4693,3.4766,3.4784,3.4799,0,0,0,0,0,3.3817,3.3933,3.3918,3.3943,3.4075,3.4181,3.4197,3.4202,3.4154,3.421,3.4237,3.421,3.4419,3.436,3.4385,3.446,3.4671,3.4682,3.4692,3.4759,3.4781,3.4799,0,0,0,0,0,0,3.388,3.394,3.3924,3.4063,3.4117,3.4172,3.4243,3.4225,3.4294,3.4284,3.4287,3.4302,3.4426,3.4456,3.4388,3.4604,3.4538,3.4554,3.4579,3.46,3.4617,3.4606,3.4327,0,0,0,0,0,3.391,3.3991,3.404,3.4157,3.4185,3.421,3.4256,3.4255,3.4311,3.4333,3.4369,3.4424,3.4502,3.4553,3.4628,3.4771,3.4783,3.4835,3.4851,3.4865,3.4878,3.4953,3.4976,3.4734,3.4734,3.4733,0,0,3.3974,3.4016,3.4067,3.4171,3.4213,3.4295,3.4229,3.4321,3.4381,3.4347,3.4463,3.4491,3.4553,3.4685,3.4745,3.4713,3.4948,3.4879,3.4889,3.4895,3.4967,3.499,3.501,3.4741,3.474,3.4738,0,0,3.413,3.4172,3.4273,3.4316,3.438,3.4395,3.4419,3.4478,3.4495,3.4611,3.4586,3.4659,3.4794,3.4838,3.4878,3.505,3.5026,3.5075,3.516,3.5233,3.5252,3.5269,3.5327,3.5349,3.5088,3.5089,3.5089,0,3.42,3.4324,3.4328,3.442,3.4466,3.4438,3.454,3.4581,3.4666,3.4698,3.4661,3.4828,3.4868,3.5009,3.505,3.5085,3.5111,3.5066,3.5249,3.5266,3.5282,3.5338,3.536,3.5094,3.5093,3.5093,3.5092,0,3.4406,3.4493,3.4567,3.4648,3.4702,3.4799,3.4816,3.4871,3.4865,3.4884,3.5001,3.5048,3.513,3.5164,3.516,3.5304,3.5282,3.5248,3.5181,3.531,3.5362,3.5384,3.5101,3.5099,3.5098,3.5097,0,0,3.4606,3.4687,3.4714,3.4749,3.4817,3.4884,3.4979,3.5058,3.5104,3.5163,3.5241,3.5356,3.5324,3.5369,3.537,3.5435,3.5564,3.5392,3.5393,3.5419,3.5722,3.5745,3.577,3.555,3.5554,3.5558,3.5716,0,3.4765,3.4931,3.4937,3.5088,3.5167,3.5142,3.5224,3.5274,3.5295,3.5364,3.5386,3.5466,3.5419,3.5446,3.5509,3.5535,3.5624,3.5524,3.5621,3.5624,3.5603,3.5798,3.5823,3.597,3.5737,3.574,3.5743,0,3.4973,3.5038,3.5197,3.5252,3.5285,3.5359,3.5431,3.5498,3.5554,3.5564,3.5614,3.5605,3.57,3.5633,3.5763,3.5695,3.5735,3.5754,3.576,3.5766,3.5689,3.5807,3.6018,3.6039,3.5776,3.5773,3.5771,0,3.5099,3.5226,3.5337,3.5369,3.5436,3.5488,3.5518,3.557,3.5617,3.568,3.571,3.5785,3.5824,3.5882,3.5892,3.5842,3.6022,3.5956,3.6031,3.6031,3.6068,3.6065,3.6285,3.6099,3.6099,3.6099,3.6098,0,3.5275,3.5372,3.5394,3.5462,3.557,3.5575,3.5682,3.5708,3.5754,3.5826,3.581,3.5877,3.5888,3.5958,3.5967,3.6072,3.6092,3.6101,3.6101,3.6101,3.6099,3.6125,3.6114,3.6105,3.6103,3.6102,3.6101,0,3.5432,3.5451,3.557,3.5623,3.5639,3.5716,3.5761,3.5826,3.5844,3.5935,3.5957,3.5986,3.6067,3.6083,3.618,3.6186,3.631,3.6302,3.6291,3.6289,3.6362,3.6354,3.6604,3.6636,3.6432,3.6434,3.6436,0,3.5542,3.5616,3.5677,3.5724,3.5756,3.5832,3.588,3.5888,3.5937,3.6005,3.6061,3.6141,3.6204,3.6335,3.6364,3.6438,3.6429,3.6512,3.644,3.6436,3.6427,3.6421,3.6427,3.6525,3.6527,3.6529,3.653,0,3.5733,3.5738,3.5807,3.5879,3.5936,3.5993,3.6047,3.6087,3.6102,3.6158,3.6241,3.629,3.6388,3.6466,3.6539,3.6569,3.6552,3.6553,3.6574,3.6572,3.6561,3.6564,3.6325,3.6547,3.6545,3.6544,3.6543,3.6542,3.5868,3.5932,3.5984,3.606,3.6102,3.6153,3.6215,3.6241,3.631,3.6389,3.639,3.648,3.6532,3.6628,3.6663,3.6732,3.6706,3.6737,3.6744,3.6751,3.6756,3.6553,3.6746,3.6745,3.6745,3.6745,3.6744,0,3.6056,3.6088,3.6158,3.6234,3.6294,3.6273,3.6332,3.6383,3.6461,3.6512,3.6574,3.6668,3.6743,3.6778,3.6852,3.6901,3.6894,3.692,3.6915,3.6921,3.6777,3.675,3.6923,3.6923,3.6923,3.6923,3.6923,3.6923,3.616,3.6266,3.6277,3.6402,3.6434,3.6521,3.6556,3.6602,3.6641,3.6746,3.6809,3.6831,3.6875,3.6951,3.7019,3.7027,3.7054,3.7082,3.7087,3.695,3.6932,3.6914,3.6889,3.7089,3.7089,3.7225,3.7226,3.7227]},{"header":{"parameterUnit":"m.s-1","parameterCategory":1,"la1":30.2991,"la2":30.254,"lo1":-89.0895,"lo2":-89.0444,"dy":0.0017,"dx":0.0017,"nx":28,"ny":28,"refTime":"2026-01-29T03:00:00:Z","depth":0,"parameterNumber":3,"parameterNumberName":"V-component_of_WINDS"},"data":[0,0,0,0,0,0,0,0,0,0,0,0,0,0,0,0,0,0,0,0,0,0,0,0,0,0,0,0,0,0,0,0,0,0,0,0,0,0,0,0,0,0,0,0,0,0,0,0,0,0,0,0,0,0,0,0,0,0,1.6133,1.6132,0,1.6085,1.6085,1.6084,1.6027,1.6026,1.6025,1.6024,1.5973,1.5973,1.5972,0,0,0,0,0,0,0,0,0,0,0,0,0,1.617,1.617,1.6133,1.6132,1.6132,1.6085,1.6085,1.6084,1.6027,1.6026,1.6025,1.6024,1.5973,1.5973,1.5972,0,0,0,0,0,0,0,0,0,0,0,0,0,1.6141,1.617,1.6133,1.6098,1.6094,1.6085,1.6085,1.6084,1.6027,1.6026,1.6024,1.6023,1.5974,1.5973,1.5972,1.5994,0,0,1.597,1.5969,0,0,0,0,0,0,0,0,1.6143,1.614,1.6103,1.61,1.6096,1.6061,1.6079,1.6054,1.6027,1.6052,1.6024,1.6022,1.6003,1.6,1.5994,1.5991,1.5989,1.597,1.5969,1.5969,1.5969,0,0,0,0,0,0,0,1.6145,1.6142,1.6114,1.6103,1.6098,1.6083,1.6077,1.6074,1.6036,1.605,1.6046,1.6041,1.6001,1.5995,1.5992,1.5989,1.597,1.5969,1.5968,1.5968,1.5997,1.5998,0,0,0,0,0,0,1.6153,1.6144,1.6115,1.6113,1.6117,1.6083,1.6077,1.6073,1.6036,1.6029,1.6042,1.6039,1.5997,1.5993,1.599,1.601,1.5969,1.5968,1.5968,1.5995,1.5997,1.5998,0,0,0,0,0,0,1.6154,1.6151,1.6117,1.6127,1.6121,1.6084,1.608,1.6073,1.6067,1.603,1.6022,1.6043,1.5996,1.5991,1.5992,1.6008,1.5968,1.5967,1.5994,1.5996,1.5998,1.6053,0,0,0,0,0,0,1.6155,1.6152,1.6161,1.6128,1.6121,1.6122,1.6081,1.6073,1.6066,1.6061,1.6029,1.6022,1.5994,1.5994,1.5992,1.6006,1.5966,1.5992,1.5995,1.5997,1.6049,1.6056,1.6062,0,0,0,0,0,1.6157,1.6179,1.6162,1.6159,1.6132,1.6123,1.6119,1.6087,1.6067,1.6075,1.6051,1.6023,1.6007,1.5995,1.5992,1.6006,1.5991,1.5994,1.5997,1.6047,1.6055,1.6062,0,0,0,0,0,0,1.6215,1.6174,1.6155,1.6167,1.6149,1.6114,1.6123,1.6098,1.6085,1.6081,1.604,1.6034,1.6039,1.6022,1.601,1.6023,1.5995,1.5997,1.6033,1.6041,1.6047,1.6051,1.5966,0,0,0,0,0,1.623,1.6227,1.6191,1.6205,1.6197,1.6161,1.6156,1.6133,1.6112,1.6105,1.608,1.6061,1.605,1.6045,1.6034,1.6046,1.6037,1.6054,1.6061,1.6066,1.6069,1.607,1.6077,1.6007,1.6007,1.6007,0,0,1.6259,1.6236,1.6237,1.6216,1.6199,1.6195,1.6155,1.6154,1.615,1.6104,1.6103,1.6084,1.6059,1.6066,1.6067,1.6052,1.6085,1.607,1.6074,1.6074,1.6074,1.608,1.6086,1.6009,1.6009,1.6009,0,0,1.6311,1.6294,1.6303,1.6286,1.6261,1.6237,1.6239,1.6207,1.6192,1.6191,1.6155,1.6149,1.6134,1.6116,1.6105,1.6146,1.6119,1.6144,1.6177,1.6179,1.6184,1.6189,1.6201,1.6206,1.6146,1.6146,1.6146,0,1.6351,1.6345,1.631,1.631,1.63,1.6258,1.6264,1.625,1.6223,1.6216,1.6199,1.6176,1.6157,1.6157,1.6166,1.616,1.6158,1.6147,1.6187,1.6191,1.6195,1.6206,1.6211,1.6149,1.6149,1.6149,1.6148,0,1.6394,1.639,1.6399,1.6373,1.6364,1.6368,1.6332,1.6327,1.6303,1.628,1.6276,1.6251,1.6233,1.6231,1.6208,1.6226,1.6217,1.6194,1.6165,1.6205,1.6214,1.6219,1.6154,1.6152,1.6152,1.6151,0,0,1.6483,1.6435,1.6439,1.6425,1.6393,1.6388,1.6388,1.637,1.6365,1.6347,1.6344,1.633,1.6307,1.6295,1.627,1.6272,1.6302,1.6248,1.6247,1.6257,1.6316,1.6333,1.6339,1.6284,1.6284,1.6285,1.6318,0,1.6527,1.6525,1.6492,1.6499,1.6493,1.6451,1.645,1.6429,1.6407,1.6397,1.6371,1.6361,1.6334,1.6325,1.6326,1.6299,1.6313,1.6296,1.6279,1.6278,1.6285,1.6344,1.6362,1.6395,1.6321,1.6322,1.6323,0,1.6579,1.6563,1.6569,1.6534,1.653,1.653,1.6509,1.6501,1.6475,1.6458,1.6442,1.6413,1.6407,1.638,1.6371,1.6359,1.635,1.6335,1.6335,1.6332,1.6303,1.6341,1.6405,1.6409,1.6329,1.6328,1.6328,0,1.6641,1.662,1.6621,1.661,1.657,1.657,1.6553,1.6525,1.6515,1.6496,1.6488,1.6469,1.6458,1.6442,1.6407,1.6391,1.64,1.6371,1.6384,1.6385,1.6388,1.6388,1.645,1.6384,1.6384,1.6384,1.6384,0,1.6693,1.6698,1.6647,1.6648,1.665,1.6611,1.6615,1.6593,1.6568,1.6562,1.6524,1.6518,1.6472,1.6461,1.6433,1.6427,1.6423,1.6407,1.64,1.641,1.6412,1.6403,1.6399,1.6385,1.6385,1.6385,1.6384,0,1.6763,1.6729,1.6726,1.6687,1.6677,1.6681,1.6646,1.6643,1.6617,1.6609,1.6604,1.6563,1.6547,1.651,1.6484,1.6465,1.6466,1.6453,1.6475,1.647,1.6485,1.6483,1.6542,1.6546,1.648,1.648,1.6481,0,1.6798,1.68,1.6761,1.6754,1.6738,1.6727,1.6716,1.6677,1.6667,1.6635,1.6635,1.6616,1.6598,1.6573,1.654,1.6519,1.6504,1.6526,1.6501,1.651,1.6502,1.6502,1.65,1.6532,1.6533,1.6534,1.6534,0,1.6863,1.6845,1.6832,1.6811,1.6799,1.6781,1.6761,1.6757,1.6712,1.6702,1.6685,1.6671,1.6643,1.6623,1.6597,1.6576,1.6547,1.6542,1.6544,1.6554,1.6566,1.6557,1.6489,1.6541,1.654,1.654,1.654,1.6539,1.6915,1.6914,1.6885,1.687,1.685,1.6831,1.6826,1.6799,1.6784,1.6759,1.6736,1.672,1.669,1.6651,1.6632,1.6617,1.6603,1.6606,1.6606,1.6607,1.6611,1.6569,1.6613,1.6612,1.6612,1.6612,1.6612,0,1.6976,1.6955,1.6941,1.6914,1.6901,1.6875,1.685,1.684,1.6828,1.6802,1.6785,1.6764,1.6743,1.6707,1.6683,1.6678,1.6664,1.6673,1.6673,1.6668,1.6626,1.6626,1.6685,1.6685,1.6685,1.6685,1.6685,1.6685,1.7006,1.7002,1.6981,1.6966,1.6944,1.6929,1.6916,1.6898,1.6877,1.6855,1.6838,1.6815,1.6784,1.6757,1.6736,1.6726,1.6718,1.6731,1.6716,1.6678,1.6671,1.6665,1.6664,1.673,1.673,1.6759,1.6759,1.6759]}]]